Погода в Холодном

Россия / Белгородская область     51°00′28″N   37°06′26″E
темп.,
°C
ветер,
м/с
пор.,
м/с
влажн.,
%
обл.,
%
осадки,
мм/ч
давл.,
гПа
погр.,
м
23 апреля, пт
пт2300:00+10ююз3776100 0.0 1020162
03:00+9ю3878100 0.0 1019178
06:00+9ю398079 0.0 1019192
09:00+12ююз69685 0.3 1018679
12:00+15ююз785332 0.3 10171755
15:00+16ююз795388 1.3 10151972
18:00+13ююз51068100 0.9 1014634
21:00+9юз61290100 2.3 10141121
24 апреля, сб
сб2400:00+7зсз5791100 1.6 1013592
03:00+5сз5108497 1.9 1014672
06:00+5зюз37885 0.0 1014336
09:00+7з686886 0.4 10141161
12:00+9з810495 0.6 10142000
15:00+9з81141100 0.6 10142585
18:00+5з71065100 0.7 10151235
21:00+3зсз713745 0.7 1017936
25 апреля, вс
вс2500:00+2з613765 0.0 1018653
03:00+1з511800 0.0 1019351
06:000зюз49815 0.0 1019252
09:00+6з68550 0.0 10191131
12:00+9зюз6741100 0.0 10192584
15:00+10юз693798 0.0 10172499
18:00+9юз71152100 0.1 10161638
21:00+5зюз598891 0.9 1018726
26 апреля, пн
пн2600:00+4з239493 0.1 101887
03:00+3з129297 0.1 1017118
06:00+3з2385100 0.2 1017418
09:00+5з3368100 0.2 10171084
12:00+8з4548100 0.1 10162119
15:00+8з5743100 0.2 10152133
18:00+7з675572 0.1 10151401
21:00+4зюз377145 0.2 1016163
27 апреля, вт
вт2700:00+3зюз388215 0.1 1016279
03:00+1з378712 0.1 1016151
06:00+1з238414 0.0 101660
09:00+6ююз2259100 0.0 1016471
12:00+7ю5458100 0.0 10161309
15:00+5вюв3489100 1.5 1014632
18:00+4вюв2496100 4.0 1013704
21:00+3ссз4597100 6.9 1015592